APRIZESAT 2

Last updated on Sun Jun 21 2026 00:03:22 GMT+0000 (Coordinated Universal Time)

1 28366U 04025A 26171.41582627 .00000121 00000+0 50952-4 0 9996 2 28366 98.1018 337.2134 0104426 239.9872 119.0923 14.38036809152100
UTC large
Height (km)
Speed (km/s)
/
Latitude / Longitude
Inclination (degrees)
Orbital Period (minutes)
Azimuth
Elevation
Range (km)
Doppler Factor

Next 0 passes for location: London (51.5072 / 0.1276)

No passes found over London.
APRIZESAT 2